User: anonymous   Login
Location: Unspecified
(0.0000°N, 0.0000°E)
Time: 08:46:09
(UTC+02:00)
Language:

Delta 2 Rocket - Orbit

View from above orbital plane
View from above orbital plane
View from above satellite
View from above satellite

Ground track
Ground track

The orbit data is extracted from the following two-line orbital elements,

1 20453U 90008B   15188.13105585  .00007638  00000-0  46058-3 0  9992
2 20453 035.6260 077.4965 0303845 028.8066 332.9061 14.79020049342693
Epoch (UTC): 07 July 2015 03:08:43
Eccentricity: 0.0303845
inclination: 35.6260°
perigee height: 419 km
apogee height: 845 km
right ascension of ascending node: 77.4965°
argument of perigee: 28.8066°
revolutions per day: 14.79020049
mean anomaly at epoch: 332.9061°
orbit number at epoch: 34269

The dashed part of the orbit path shows where the satellite is in the earth's shadow,  

DLR